| time (UTC) | temp F | wind direction | speed MPH | gust MPH | rain 1hr in | rain 24hr in | rain mn in | humidity % | barometer mb |
| 20260505111540 | 55 | 90 | 0.0 | 0.0 | 0.00 | 0.00 | 0.00 | 91 | 1013.9 |
| 20260505111025 | 55 | 90 | 0.0 | 0.0 | 0.00 | 0.00 | 0.00 | 90 | 1013.7 |
| 20260505110528 | 55 | 90 | 0.0 | 0.0 | 0.00 | 0.00 | 0.00 | 90 | 1013.6 |
| 20260505102051 | 56 | 90 | 0.0 | 0.0 | 0.00 | 0.00 | 0.00 | 88 | 1013.8 |
| 20260505101535 | 56 | 90 | 0.0 | 0.0 | 0.00 | 0.00 | 0.00 | 88 | 1013.8 |
| 20260505101037 | 56 | 90 | 0.0 | 0.0 | 0.00 | 0.00 | 0.00 | 88 | 1013.8 |
| 20260505100539 | 57 | 90 | 0.0 | 0.0 | 0.00 | 0.00 | 0.00 | 87 | 1013.8 |
| 20260505100027 | 57 | 90 | 0.0 | 0.0 | 0.00 | 0.00 | 0.00 | 87 | 1013.8 |
| 20260505095548 | 57 | 90 | 0.0 | 0.0 | 0.00 | 0.00 | 0.00 | 87 | 1013.8 |
| 20260505095030 | 57 | 90 | 0.0 | 0.0 | 0.00 | 0.00 | 0.00 | 87 | 1014.0 |
| 20260505094554 | 57 | 90 | 0.0 | 0.0 | 0.00 | 0.00 | 0.00 | 87 | 1013.8 |
| 20260505094035 | 57 | 90 | 0.0 | 0.0 | 0.00 | 0.00 | 0.00 | 86 | 1013.6 |
| 20260505093537 | 57 | 90 | 0.0 | 0.0 | 0.00 | 0.00 | 0.00 | 86 | 1013.4 |
| 20260505093041 | 57 | 90 | 0.0 | 0.0 | 0.00 | 0.00 | 0.00 | 86 | 1013.3 |
| 20260505092522 | 57 | 90 | 0.0 | 0.0 | 0.00 | 0.00 | 0.00 | 86 | 1013.4 |
| 20260505092045 | 58 | 90 | 0.0 | 0.0 | 0.00 | 0.00 | 0.00 | 87 | 1013.5 |
| 20260505091528 | 58 | 80 | 0.0 | 0.0 | 0.00 | 0.00 | 0.00 | 87 | 1013.6 |
| 20260505091029 | 58 | 80 | 0.0 | 0.0 | 0.00 | 0.00 | 0.00 | 87 | 1013.3 |
| 20260505090531 | 58 | 80 | 0.0 | 0.0 | 0.00 | 0.00 | 0.00 | 87 | 1013.4 |
| 20260505090035 | 58 | 80 | 0.0 | 0.0 | 0.00 | 0.00 | 0.00 | 88 | 1013.3 |
| 20260505085536 | 58 | 80 | 0.0 | 0.0 | 0.00 | 0.00 | 0.00 | 87 | 1013.4 |
| 20260505085023 | 58 | 80 | 0.0 | 0.0 | 0.00 | 0.00 | 0.00 | 89 | 1013.4 |
| 20260505084528 | 58 | 77 | 0.0 | 1.0 | 0.00 | 0.00 | 0.00 | 88 | 1013.3 |
| 20260505084029 | 58 | 77 | 0.0 | 4.0 | 0.00 | 0.00 | 0.00 | 89 | 1013.3 |
| 20260505083551 | 58 | 99 | 0.0 | 4.0 | 0.00 | 0.00 | 0.00 | 91 | 1013.5 |
| 20260505083034 | 58 | 123 | 2.0 | 4.0 | 0.00 | 0.00 | 0.00 | 90 | 1013.6 |
| 20260505082536 | 58 | 120 | 1.0 | 4.0 | 0.00 | 0.00 | 0.00 | 90 | 1013.2 |
| 20260505082039 | 58 | 174 | 0.0 | 0.0 | 0.00 | 0.00 | 0.00 | 90 | 1013.1 |
| 20260505081542 | 58 | 271 | 0.0 | 0.0 | 0.00 | 0.00 | 0.00 | 88 | 1013.0 |
| 20260505081024 | 58 | 271 | 0.0 | 0.0 | 0.00 | 0.00 | 0.00 | 87 | 1012.8 |
| 20260505080526 | 58 | 271 | 0.0 | 0.0 | 0.00 | 0.00 | 0.00 | 87 | 1012.7 |
| 20260505080031 | 58 | 271 | 0.0 | 0.0 | 0.00 | 0.00 | 0.00 | 86 | 1012.6 |
| 20260505075533 | 58 | 271 | 0.0 | 0.0 | 0.00 | 0.00 | 0.00 | 85 | 1012.6 |
| 20260505075035 | 58 | 271 | 0.0 | 0.0 | 0.00 | 0.00 | 0.00 | 85 | 1012.7 |
| 20260505074543 | 58 | 271 | 0.0 | 0.0 | 0.00 | 0.00 | 0.00 | 85 | 1012.7 |
| 20260505074024 | 58 | 271 | 0.0 | 0.0 | 0.00 | 0.00 | 0.00 | 86 | 1012.6 |
| 20260505073547 | 58 | 271 | 0.0 | 0.0 | 0.00 | 0.00 | 0.00 | 86 | 1012.6 |
| 20260505073029 | 58 | 271 | 0.0 | 0.0 | 0.00 | 0.00 | 0.00 | 86 | 1012.6 |
| 20260505072531 | 58 | 271 | 0.0 | 0.0 | 0.00 | 0.00 | 0.00 | 86 | 1012.6 |
| 20260505072034 | 58 | 271 | 0.0 | 0.0 | 0.00 | 0.00 | 0.00 | 85 | 1012.7 |
| 20260505071558 | 58 | 271 | 0.0 | 0.0 | 0.00 | 0.00 | 0.00 | 84 | 1012.7 |
| 20260505071040 | 58 | 271 | 0.0 | 0.0 | 0.00 | 0.00 | 0.00 | 83 | 1012.7 |
| 20260505070543 | 58 | 271 | 0.0 | 0.0 | 0.00 | 0.00 | 0.00 | 83 | 1012.8 |
| 20260505070046 | 58 | 271 | 0.0 | 0.0 | 0.00 | 0.00 | 0.00 | 83 | 1012.8 |
| 20260505065526 | 58 | 271 | 0.0 | 0.0 | 0.00 | 0.00 | 0.00 | 82 | 1012.8 |
| 20260505065029 | 58 | 271 | 0.0 | 0.0 | 0.00 | 0.00 | 0.00 | 82 | 1012.9 |
| 20260505064534 | 58 | 271 | 0.0 | 1.0 | 0.00 | 0.00 | 0.00 | 80 | 1012.9 |
| 20260505064035 | 58 | 271 | 0.0 | 1.0 | 0.00 | 0.00 | 0.00 | 80 | 1012.8 |
| 20260505063538 | 58 | 273 | 0.0 | 0.0 | 0.00 | 0.00 | 0.00 | 77 | 1012.7 |
| 20260505063046 | 58 | 273 | 0.0 | 0.0 | 0.00 | 0.00 | 0.00 | 76 | 1012.6 |
| 20260505062527 | 58 | 273 | 0.0 | 0.0 | 0.00 | 0.00 | 0.00 | 73 | 1012.5 |
| 20260505062029 | 58 | 273 | 0.0 | 0.0 | 0.00 | 0.00 | 0.00 | 73 | 1012.6 |
| 20260505061534 | 58 | 273 | 0.0 | 0.0 | 0.00 | 0.00 | 0.00 | 73 | 1012.8 |
| 20260505061035 | 58 | 273 | 0.0 | 0.0 | 0.00 | 0.00 | 0.00 | 72 | 1012.8 |
| 20260505060538 | 58 | 273 | 0.0 | 0.0 | 0.00 | 0.00 | 0.00 | 72 | 1012.8 |
| 20260505060042 | 59 | 273 | 0.0 | 0.0 | 0.00 | 0.00 | 0.00 | 71 | 1012.9 |
| 20260505055602 | 59 | 273 | 0.0 | 0.0 | 0.00 | 0.00 | 0.00 | 72 | 1013.0 |
| 20260505055023 | 59 | 273 | 0.0 | 0.0 | 0.00 | 0.00 | 0.00 | 72 | 1013.2 |
| 20260505054527 | 59 | 273 | 0.0 | 0.0 | 0.00 | 0.00 | 0.00 | 70 | 1013.2 |
| 20260505054029 | 59 | 273 | 0.0 | 0.0 | 0.00 | 0.00 | 0.00 | 71 | 1013.4 |
| 20260505053531 | 59 | 273 | 0.0 | 0.0 | 0.00 | 0.00 | 0.00 | 72 | 1013.3 |
| 20260505053035 | 60 | 273 | 0.0 | 0.0 | 0.00 | 0.00 | 0.00 | 74 | 1013.3 |
| 20260505052522 | 60 | 273 | 0.0 | 0.0 | 0.00 | 0.00 | 0.00 | 70 | 1013.1 |
| 20260505052024 | 60 | 273 | 0.0 | 0.0 | 0.00 | 0.00 | 0.00 | 70 | 1013.3 |
| 20260505051528 | 60 | 273 | 0.0 | 0.0 | 0.00 | 0.00 | 0.00 | 70 | 1013.6 |
| 20260505051029 | 60 | 273 | 0.0 | 0.0 | 0.00 | 0.00 | 0.00 | 69 | 1013.5 |
| 20260505050552 | 60 | 273 | 0.0 | 0.0 | 0.00 | 0.00 | 0.00 | 69 | 1013.4 |
| 20260505041543 | 62 | 273 | 0.0 | 0.0 | 0.00 | 0.00 | 0.00 | 68 | 1014.1 |
| 20260505041024 | 63 | 273 | 0.0 | 0.0 | 0.00 | 0.00 | 0.00 | 65 | 1013.9 |
| 20260505040527 | 63 | 273 | 0.0 | 0.0 | 0.00 | 0.00 | 0.00 | 66 | 1013.9 |
| 20260505040031 | 63 | 273 | 0.0 | 0.0 | 0.00 | 0.00 | 0.00 | 66 | 1013.9 |
| 20260505035553 | 63 | 273 | 0.0 | 0.0 | 0.00 | 0.00 | 0.00 | 66 | 1013.9 |
| 20260505035034 | 64 | 273 | 0.0 | 0.0 | 0.00 | 0.00 | 0.00 | 65 | 1014.0 |
| 20260505034539 | 64 | 273 | 0.0 | 0.0 | 0.00 | 0.00 | 0.00 | 67 | 1014.0 |
| 20260505034040 | 65 | 273 | 0.0 | 0.0 | 0.00 | 0.00 | 0.00 | 64 | 1014.2 |
| 20260505033524 | 65 | 273 | 0.0 | 0.0 | 0.00 | 0.00 | 0.00 | 63 | 1014.2 |
| 20260505033028 | 65 | 273 | 0.0 | 0.0 | 0.00 | 0.00 | 0.00 | 63 | 1014.2 |
| 20260505032530 | 65 | 273 | 0.0 | 0.0 | 0.00 | 0.00 | 0.00 | 65 | 1014.1 |
| 20260505032037 | 66 | 273 | 0.0 | 0.0 | 0.00 | 0.00 | 0.00 | 63 | 1014.1 |
| 20260505031541 | 66 | 273 | 0.0 | 0.0 | 0.00 | 0.00 | 0.00 | 62 | 1014.0 |
| 20260505031022 | 66 | 271 | 0.0 | 0.0 | 0.00 | 0.00 | 0.00 | 62 | 1014.0 |
| 20260505030545 | 67 | 271 | 0.0 | 0.0 | 0.00 | 0.00 | 0.00 | 60 | 1014.1 |
| 20260505030029 | 67 | 271 | 0.0 | 0.0 | 0.00 | 0.00 | 0.00 | 61 | 1014.3 |
| 20260505025530 | 67 | 281 | 0.0 | 0.0 | 0.00 | 0.00 | 0.00 | 61 | 1014.2 |
| 20260505025032 | 67 | 264 | 0.0 | 0.0 | 0.00 | 0.00 | 0.00 | 61 | 1014.3 |
| 20260505024535 | 68 | 267 | 0.0 | 0.0 | 0.00 | 0.00 | 0.00 | 60 | 1014.3 |
| 20260505024036 | 68 | 257 | 0.0 | 0.0 | 0.00 | 0.00 | 0.00 | 60 | 1014.3 |
| 20260505023558 | 68 | 257 | 0.0 | 0.0 | 0.00 | 0.00 | 0.00 | 59 | 1014.3 |
| 20260505023041 | 69 | 233 | 0.0 | 0.0 | 0.00 | 0.00 | 0.00 | 59 | 1014.3 |
| 20260505022602 | 69 | 238 | 0.0 | 0.0 | 0.00 | 0.00 | 0.00 | 59 | 1014.2 |
| 20260505022023 | 69 | 259 | 0.0 | 0.0 | 0.00 | 0.00 | 0.00 | 59 | 1014.2 |
| 20260505021527 | 69 | 259 | 0.0 | 0.0 | 0.00 | 0.00 | 0.00 | 59 | 1014.1 |
| 20260505021032 | 70 | 230 | 0.0 | 0.0 | 0.00 | 0.00 | 0.00 | 58 | 1014.1 |
| 20260505020535 | 70 | 248 | 0.0 | 0.0 | 0.00 | 0.00 | 0.00 | 58 | 1014.2 |
| 20260505020040 | 70 | 250 | 0.0 | 2.0 | 0.00 | 0.00 | 0.00 | 58 | 1014.2 |
| 20260505015542 | 70 | 235 | 0.0 | 2.0 | 0.00 | 0.00 | 0.00 | 57 | 1014.2 |
| 20260505015023 | 71 | 229 | 0.0 | 1.0 | 0.00 | 0.00 | 0.00 | 57 | 1014.0 |
| 20260505014527 | 71 | 240 | 0.0 | 2.0 | 0.00 | 0.00 | 0.00 | 56 | 1013.9 |
| 20260505014029 | 71 | 234 | 0.0 | 4.0 | 0.00 | 0.00 | 0.00 | 56 | 1013.9 |
| 20260505013531 | 71 | 261 | 0.0 | 4.0 | 0.00 | 0.00 | 0.00 | 56 | 1013.9 |
| 20260505013034 | 72 | 249 | 0.0 | 9.0 | 0.00 | 0.00 | 0.00 | 56 | 1013.9 |
| 20260505012536 | 72 | 248 | 4.0 | 9.0 | 0.00 | 0.00 | 0.00 | 55 | 1013.8 |
| 20260505012039 | 72 | 235 | 2.0 | 9.0 | 0.00 | 0.00 | 0.00 | 54 | 1013.8 |
| 20260505011526 | 72 | 248 | 2.0 | 9.0 | 0.00 | 0.00 | 0.00 | 54 | 1013.8 |
| 20260505011028 | 73 | 249 | 0.0 | 9.0 | 0.00 | 0.00 | 0.00 | 54 | 1013.6 |
| 20260505010550 | 73 | 232 | 0.0 | 6.0 | 0.00 | 0.00 | 0.00 | 54 | 1013.6 |
| 20260505010033 | 73 | 244 | 3.0 | 9.0 | 0.00 | 0.00 | 0.00 | 54 | 1013.7 |
| 20260505005535 | 73 | 242 | 1.0 | 9.0 | 0.00 | 0.00 | 0.00 | 54 | 1013.4 |
| 20260505005038 | 74 | 246 | 1.0 | 7.0 | 0.00 | 0.00 | 0.00 | 54 | 1013.4 |
| 20260505004542 | 74 | 246 | 1.0 | 10.0 | 0.00 | 0.00 | 0.00 | 53 | 1013.3 |
| 20260505004024 | 74 | 209 | 0.0 | 10.0 | 0.00 | 0.00 | 0.00 | 50 | 1013.2 |
| 20260505003546 | 74 | 250 | 4.0 | 8.0 | 0.00 | 0.00 | 0.00 | 51 | 1013.2 |
| 20260505003030 | 75 | 244 | 3.0 | 9.0 | 0.00 | 0.00 | 0.00 | 51 | 1013.1 |
| 20260505002532 | 75 | 240 | 3.0 | 9.0 | 0.00 | 0.00 | 0.00 | 51 | 1013.0 |
| 20260505002056 | 75 | 236 | 1.0 | 9.0 | 0.00 | 0.00 | 0.00 | 52 | 1013.0 |
| 20260505001539 | 75 | 248 | 3.0 | 12.0 | 0.00 | 0.00 | 0.00 | 51 | 1012.9 |
| 20260505001041 | 75 | 208 | 1.0 | 7.0 | 0.00 | 0.00 | 0.00 | 50 | 1012.8 |
| 20260505000527 | 75 | 163 | 0.0 | 0.0 | 0.00 | 0.00 | 0.00 | 44 | 1012.5 |
| 20260505000032 | 76 | 163 | 0.0 | 0.0 | 0.00 | 0.00 | 0.00 | 47 | 1012.5 |
| 20260504235555 | 76 | 163 | 0.0 | 0.0 | 0.00 | 0.00 | 0.00 | 45 | 1012.6 |
| 20260504235035 | 76 | 163 | 0.0 | 0.0 | 0.00 | 0.00 | 0.00 | 41 | 1012.5 |
| 20260504234539 | 77 | 163 | 0.0 | 0.0 | 0.00 | 0.00 | 0.00 | 41 | 1012.5 |
| 20260504234040 | 77 | 163 | 0.0 | 0.0 | 0.00 | 0.00 | 0.00 | 44 | 1012.4 |
| 20260504233523 | 77 | 163 | 0.0 | 0.0 | 0.00 | 0.00 | 0.00 | 44 | 1012.3 |
| 20260504233027 | 78 | 163 | 0.0 | 0.0 | 0.00 | 0.00 | 0.00 | 43 | 1012.5 |
| 20260504232528 | 78 | 163 | 0.0 | 0.0 | 0.00 | 0.00 | 0.00 | 42 | 1012.5 |
| 20260504232050 | 79 | 163 | 0.0 | 0.0 | 0.00 | 0.00 | 0.00 | 42 | 1012.5 |
| 20260504231534 | 79 | 163 | 0.0 | 0.0 | 0.00 | 0.00 | 0.00 | 41 | 1012.5 |
| 20260504231036 | 80 | 226 | 0.0 | 0.0 | 0.00 | 0.00 | 0.00 | 40 | 1012.4 |
| 20260504230558 | 80 | 226 | 0.0 | 0.0 | 0.00 | 0.00 | 0.00 | 41 | 1012.5 |
| 20260504225541 | 81 | 226 | 0.0 | 0.0 | 0.00 | 0.00 | 0.00 | 36 | 1012.5 |
| 20260504225024 | 81 | 226 | 0.0 | 0.0 | 0.00 | 0.00 | 0.00 | 31 | 1012.6 |
| 20260504224531 | 81 | 226 | 0.0 | 0.0 | 0.00 | 0.00 | 0.00 | 34 | 1012.6 |
| 20260504224034 | 82 | 226 | 0.0 | 1.0 | 0.00 | 0.00 | 0.00 | 32 | 1012.7 |
| 20260504223536 | 82 | 226 | 0.0 | 1.0 | 0.00 | 0.00 | 0.00 | 31 | 1012.8 |
| 20260504223041 | 82 | 225 | 0.0 | 4.0 | 0.00 | 0.00 | 0.00 | 30 | 1012.8 |
| 20260504222542 | 83 | 225 | 0.0 | 4.0 | 0.00 | 0.00 | 0.00 | 30 | 1012.8 |
| 20260504222025 | 84 | 221 | 0.0 | 4.0 | 0.00 | 0.00 | 0.00 | 31 | 1012.8 |
| 20260504221550 | 84 | 219 | 0.0 | 3.0 | 0.00 | 0.00 | 0.00 | 27 | 1012.9 |
| 20260504221029 | 85 | 219 | 0.0 | 2.0 | 0.00 | 0.00 | 0.00 | 29 | 1012.9 |
| 20260504220553 | 85 | 219 | 1.0 | 2.0 | 0.00 | 0.00 | 0.00 | 29 | 1012.9 |
| 20260504220036 | 85 | 219 | 0.0 | 2.0 | 0.00 | 0.00 | 0.00 | 28 | 1012.7 |
| 20260504215536 | 86 | 219 | 0.0 | 2.0 | 0.00 | 0.00 | 0.00 | 27 | 1012.7 |
| 20260504215038 | 86 | 220 | 0.0 | 1.0 | 0.00 | 0.00 | 0.00 | 29 | 1012.7 |
| 20260504214541 | 85 | 217 | 0.0 | 1.0 | 0.00 | 0.00 | 0.00 | 28 | 1012.7 |
| 20260504214026 | 85 | 217 | 0.0 | 4.0 | 0.00 | 0.00 | 0.00 | 28 | 1012.8 |
| 20260504213549 | 85 | 217 | 1.0 | 4.0 | 0.00 | 0.00 | 0.00 | 28 | 1012.7 |
| 20260504213032 | 85 | 213 | 0.0 | 4.0 | 0.00 | 0.00 | 0.00 | 29 | 1012.7 |
| 20260504212535 | 85 | 215 | 1.0 | 4.0 | 0.00 | 0.00 | 0.00 | 29 | 1012.8 |
| 20260504212037 | 85 | 238 | 0.0 | 4.0 | 0.00 | 0.00 | 0.00 | 30 | 1012.7 |
| 20260504211541 | 85 | 238 | 0.0 | 2.0 | 0.00 | 0.00 | 0.00 | 30 | 1012.8 |
| 20260504211044 | 85 | 238 | 0.0 | 1.0 | 0.00 | 0.00 | 0.00 | 30 | 1012.9 |
| 20260504210526 | 84 | 240 | 0.0 | 2.0 | 0.00 | 0.00 | 0.00 | 33 | 1012.9 |
| 20260504210030 | 84 | 198 | 0.0 | 2.0 | 0.00 | 0.00 | 0.00 | 30 | 1012.8 |